Retour au catalogue

STARLINK-35599

ActifCommunicationsVLEO
NORAD 66102·PAYLOAD·🇺🇸 United States

Lancé Oct 19, 2025 depuis Vandenberg Space Force Base

Loading…

Prochains Passages (prochaines 24 heures)

TLE

FraisSource: CelesTrak SupGP

Époque: Sep 14, 2026, 21:26 UTC

1 66102C 25236S   26257.89354167  .00014478  00000+0  42799-3 0  2572
2 66102  53.1589 301.6199 0001170  84.5321 172.4132 15.34367150    15

Suivez STARLINK-35599 en temps réel avec AllMySat

Download on the App Store